Terug naar catalogus

AETHER-12

ActiefCommunicatieSSO
NORAD 67383·PAYLOAD·🇨🇦 Canada

Gelanceerd Jan 11, 2026 vanaf Vandenberg Space Force Base

Loading…

Volgende Passages (komende 24 uur)

TLE

VersSource: Space-Track

Epoch: Sep 13, 2026, 23:01 UTC

1 67383U 26004W   26256.95940087  .00000666  00000-0  82986-4 0  9997
2 67383  97.8068 253.7982 0000171 328.5987  31.5218 14.85630834 36465

Volg AETHER-12 in realtime met AllMySat

Download on the App Store